Tracking 28790 objects as of 19-Apr-2024
HD Live streaming from Space Station
objects crossing your sky now

H-2A R/B

Track H-2A R/B now!


NORAD ID: 41037
Int'l Code: 2015-068B
Perigee: 2,716.9 km
Apogee: 35,643.0 km
Inclination: 19.3 °
Period: 677.4 minutes
Semi major axis: 25550 km
RCS: Unknown
Launch date: November 24, 2015
Source: Japan (JPN)
Launch site: TANEGASHIMA SPACE CENTER (TNSTA)

Note: This is a ROCKET BODY
Your satellite tracking list
Your tracking list is empty




NASA's NSSDC Master Catalog

Two Line Element Set (TLE):
1 41037U 15068B   24109.51161605 -.00000262  00000-0  00000-0 0  9997
2 41037  19.3106 250.1558 6443208 325.6193   5.8265  2.12565072 65253
Source of the keplerian elements: AFSPC